(349501) = 2001 UN195 = 2005 YC236 = 2008 OT19

Discovered at Kitt Peak on 2008-07-29 by Spacewatch.

Orbit

Orbit type: Main Belt

Note: WebGL enabled browser required.

epoch2023-09-13.0
epoch JD2460200.5
perihelion date2023-05-12.20953
perihelion JD2460076.70953
argument of perihelion (°)174.31521
ascending node (°)204.91995
inclination (°)0.70002
eccentricity0.1949566
perihelion distance (AU)1.8920418
Tisserand w.r.t. Jupiter3.5
ΔV w.r.t. Earth (km/sec)8.6
semimajor axis (AU)2.3502357
mean anomaly (°)33.86288
mean daily motion (°/day)0.27355000
aphelion distance (AU)2.808
period (years)3.6
P-vector [x]0.94417128
P-vector [y]0.30178562
P-vector [z]0.13215911
Q-vector [x]-0.32941477
Q-vector [y]0.87103713
Q-vector [z]0.36439022
absolute magnitude18.61
phase slope0.15
uncertainty0
referenceMPEC 2023-X193
observations used120
oppositions9
arc length (days)8088
first opposition used2001
last opposition used2023
residual rms (arc-secs)0.73
perturbers coarse indicatorM-v
perturbers precise indicator003Ek
first observation date used2001-10-18.0
last observation date used2023-12-10.0
computer nameMPCLINUX
JD of orbit computation2456270.151986
perihelion JD uncertainty (days)1.9491E-04
argument of perihelion uncertainty (°)7.7552E-04
ascending node uncertainty (°)7.7291E-04
inclination uncertainty (°)9.9618E-06
eccentricity uncertainty 9.5893E-08
perihelion distance uncertainty (AU)2.2845E-07
Minimum Orbit Intersection Distances (in AU)
for orbit epoch: 2460200.5, reference: E2023-XJ3
Mercury1.54897
Venus1.16839
Earth0.89343
Mars0.46031
Jupiter2.64474
Saturn6.68545
Uranus15.6953
Neptune27.8767

Observations

121 total observations over interval: 2001 10 18.34561 – 2023 12 10.472745
These data are available for download (format description).

